period_start,C,m1,H,J0,J1,J2,J3,J4,J5,JA,JB,JC,JD,JJ,JK,JN,#
2014-01-16 00:00:12,0.36,2.80,0.00,17.08,22.89,26.32,6.21,32.71,1025.42,2057.23,2550.30,2603.79,2819.38,349.46,332.36,9.42,0000 0000 0000 0000 000000
2014-01-16 00:01:12,0.35,2.80,0.00,17.09,22.89,26.32,6.06,32.67,1025.41,2057.20,2549.69,2603.29,2818.98,349.16,332.89,9.42,0000 0000 0000 0000 000000
2014-01-16 00:02:13,0.30,2.80,0.00,17.09,22.89,26.32,6.35,32.75,1025.41,2057.15,2549.16,2603.00,2818.42,350.70,334.08,9.43,0000 0000 0000 0000 000000
2014-01-16 00:03:13,0.24,2.80,0.00,17.10,22.89,26.33,6.37,32.75,1025.41,2057.13,2548.51,2602.45,2818.04,350.95,334.32,9.44,0000 0000 0000 0000 000000
2014-01-16 00:04:13,0.38,2.80,0.00,17.11,22.89,26.34,6.33,32.67,1025.41,2057.17,2548.12,2602.16,2817.49,350.50,333.34,9.44,0000 0000 0000 0000 000000
2014-01-16 00:05:13,0.29,2.80,0.00,17.12,22.89,26.34,6.30,32.71,1025.41,2057.20,2547.51,2601.77,2817.16,349.60,333.01,9.45,0000 0000 0000 0000 000000
2014-01-16 00:06:14,0.33,2.81,0.00,17.12,22.89,26.33,6.18,32.79,1025.41,2057.19,2547.13,2601.30,2816.72,349.47,332.88,9.45,0000 0000 0000 0000 000000
2014-01-16 00:07:14,0.29,2.81,0.00,17.13,22.89,26.32,6.32,32.79,1025.39,2057.17,2546.52,2601.05,2816.26,349.71,333.27,9.46,0000 0000 0000 0000 000000
2014-01-16 00:08:14,0.26,2.81,0.00,17.14,22.89,26.36,6.30,32.83,1025.36,2057.11,2546.13,2600.50,2815.87,350.92,333.73,9.47,0000 0000 0000 0000 000000
2014-01-16 00:09:14,0.25,2.81,0.00,17.13,22.89,26.33,6.23,32.79,1025.28,2057.13,2545.55,2600.17,2815.33,350.09,333.42,9.47,0000 0000 0000 0000 000000
2014-01-16 00:10:15,0.32,2.81,0.00,17.12,22.89,26.37,6.28,32.83,1025.26,2057.17,2545.19,2599.85,2815.03,350.07,333.41,9.48,0000 0000 0000 0000 000000
2014-01-16 00:11:15,0.31,2.81,0.00,17.13,22.89,26.39,6.25,32.83,1025.33,2057.14,2544.65,2599.34,2814.46,350.60,333.92,9.48,0000 0000 0000 0000 000000
2014-01-16 00:12:15,0.29,2.82,0.00,17.14,22.89,26.38,6.23,32.46,1025.38,2057.09,2544.23,2599.04,2814.12,351.03,334.33,9.49,0000 0000 0000 0000 000000
2014-01-16 00:13:16,0.23,2.82,0.00,17.14,22.89,26.34,6.18,32.54,1025.39,2057.08,2543.78,2598.49,2813.60,349.22,332.61,9.49,0000 0000 0000 0000 000000
2014-01-16 00:14:16,0.36,2.82,0.00,17.14,22.89,26.34,6.35,32.58,1025.39,2057.14,2543.27,2598.17,2813.22,350.79,334.11,9.50,0000 0000 0000 0000 000000
2014-01-16 00:15:16,0.30,2.82,0.00,17.14,22.89,26.34,6.30,32.92,1025.39,2057.09,2542.70,2597.82,2812.86,349.91,333.34,9.51,0000 0000 0000 0000 000000
2014-01-16 00:16:16,0.23,2.82,0.00,17.16,22.89,26.34,6.24,32.54,1025.39,2057.06,2542.24,2597.32,2812.33,350.82,334.02,9.51,0000 0000 0000 0000 000000
2014-01-16 00:17:17,0.33,2.83,0.00,17.17,22.89,26.33,6.21,32.83,1025.34,2057.11,2541.63,2597.10,2812.09,350.11,333.42,9.52,0000 0000 0000 0000 000000
2014-01-16 00:18:17,0.30,2.83,0.00,17.16,22.89,26.33,6.17,32.71,1025.31,2057.12,2541.22,2596.62,2811.56,350.00,333.31,9.52,0000 0000 0000 0000 000000
2014-01-16 00:19:17,0.31,2.83,0.00,17.16,22.90,26.37,6.18,32.79,1025.34,2057.11,2540.66,2596.22,2811.21,349.91,332.98,9.53,0000 0000 0000 0000 000000
2014-01-16 00:20:17,0.27,2.83,0.00,17.17,22.90,26.38,6.25,32.83,1025.39,2057.09,2540.20,2595.95,2810.80,350.43,333.77,9.54,0000 0000 0000 0000 000000
2014-01-16 00:21:18,0.28,2.83,0.00,17.16,22.90,26.36,6.28,32.83,1025.40,2057.09,2539.61,2595.40,2810.30,350.26,333.59,9.54,0000 0000 0000 0000 000000
2014-01-16 00:22:18,0.36,2.83,0.00,17.15,22.90,26.37,6.22,32.79,1025.39,2057.13,2539.17,2595.14,2809.98,349.16,332.61,9.55,0000 0000 0000 0000 000000
2014-01-16 00:23:18,0.28,2.84,0.00,17.17,22.90,26.39,6.30,32.46,1025.40,2057.18,2538.55,2594.74,2809.40,350.34,333.66,9.55,0000 0000 0000 0000 000000
2014-01-16 00:24:18,0.35,2.84,0.00,17.17,22.90,26.38,6.24,32.50,1025.40,2057.13,2538.08,2594.27,2809.08,351.41,334.77,9.56,0000 0000 0000 0000 000000
2014-01-16 00:25:19,0.28,2.84,0.00,17.17,22.91,26.36,6.23,32.71,1025.40,2057.15,2537.45,2593.88,2808.53,349.00,331.91,9.56,0000 0000 0000 0000 000000
2014-01-16 00:26:19,0.34,2.84,0.00,17.17,22.91,26.34,6.15,32.42,1025.40,2057.14,2536.96,2593.34,2808.19,350.17,333.49,9.57,0000 0000 0000 0000 000000
2014-01-16 00:27:19,0.35,2.84,0.00,17.18,22.91,26.41,6.28,32.88,1025.39,2057.27,2536.38,2593.09,2807.84,350.19,333.45,9.58,0000 0000 0000 0000 000000
2014-01-16 00:28:20,0.35,2.85,0.00,17.19,22.92,26.38,6.21,32.75,1025.40,2057.20,2535.93,2592.54,2807.32,349.34,332.67,9.58,0000 0000 0000 0000 000000
2014-01-16 00:29:20,0.27,2.85,0.00,17.19,22.92,26.37,6.31,32.63,1025.40,2057.17,2535.36,2592.19,2806.74,350.71,333.98,9.59,0000 0000 0000 0000 000000
2014-01-16 00:30:20,0.34,2.85,0.00,17.20,22.92,26.40,6.25,32.79,1025.40,2057.27,2534.83,2591.73,2806.27,350.74,334.00,9.59,0000 0000 0000 0000 000000
2014-01-16 00:31:20,0.38,2.85,0.00,17.21,22.92,26.39,6.15,33.00,1025.40,2057.25,2534.29,2591.25,2805.86,349.19,332.51,9.60,0000 0000 0000 0000 000000
2014-01-16 00:32:21,0.36,2.85,0.00,17.22,22.92,26.35,6.14,32.63,1025.40,2057.26,2533.76,2590.92,2805.34,349.82,333.11,9.61,0000 0000 0000 0000 000000
2014-01-16 00:33:21,0.30,2.86,0.00,17.22,22.92,26.34,6.28,33.04,1025.40,2057.23,2533.28,2590.40,2805.00,349.26,332.57,9.61,0000 0000 0000 0000 000000
2014-01-16 00:34:21,0.28,2.86,0.00,17.22,22.92,26.35,6.27,32.88,1025.40,2057.18,2532.73,2590.11,2804.45,350.75,333.99,9.62,0000 0000 0000 0000 000000
2014-01-16 00:35:22,0.26,2.86,0.00,17.22,22.92,26.35,6.27,33.00,1025.37,2057.16,2532.25,2589.59,2804.09,350.35,333.62,9.62,0000 0000 0000 0000 000000
2014-01-16 00:36:22,0.31,2.86,0.00,17.22,22.92,26.35,6.23,32.79,1025.35,2057.11,2531.68,2589.21,2803.52,350.09,333.14,9.63,0000 0000 0000 0000 000000
2014-01-16 00:37:22,0.28,2.86,0.00,17.24,22.92,26.37,6.21,32.46,1025.33,2057.15,2531.24,2588.92,2803.18,350.40,333.04,9.64,0000 0000 0000 0000 000000
2014-01-16 00:38:23,0.28,2.86,0.00,17.24,22.92,26.40,6.33,32.79,1025.34,2057.13,2530.71,2588.38,2802.67,351.14,334.32,9.64,0000 0000 0000 0000 000000
2014-01-16 00:39:23,0.31,2.87,0.00,17.24,22.92,26.40,6.17,32.79,1025.32,2057.09,2530.24,2588.09,2802.24,349.55,332.80,9.65,0000 0000 0000 0000 000000
2014-01-16 00:40:23,0.27,2.87,0.00,17.24,22.92,26.35,6.22,32.79,1025.35,2057.08,2529.64,2587.56,2801.78,349.13,332.54,9.65,0000 0000 0000 0000 000000
2014-01-16 00:41:23,0.32,2.87,0.00,17.24,22.93,26.34,6.33,32.83,1025.33,2057.06,2529.17,2587.18,2801.28,350.24,333.45,9.66,0000 0000 0000 0000 000000
2014-01-16 00:42:24,0.27,2.87,0.00,17.24,22.94,26.35,6.31,32.67,1025.39,2057.04,2528.54,2586.88,2800.93,350.56,333.85,9.66,0000 0000 0000 0000 000000
2014-01-16 00:43:24,0.27,2.87,0.00,17.24,22.94,26.36,6.24,32.75,1025.38,2057.05,2528.18,2586.35,2800.37,349.85,333.21,9.67,0000 0000 0000 0000 000000
2014-01-16 00:44:24,0.35,2.87,0.00,17.24,22.94,26.37,6.16,32.50,1025.34,2057.06,2527.75,2586.09,2800.11,349.95,332.72,9.68,0000 0000 0000 0000 000000
2014-01-16 00:45:24,0.26,2.88,0.00,17.24,22.94,26.38,6.32,33.08,1025.31,2057.06,2527.20,2585.60,2799.60,349.43,332.68,9.68,0000 0000 0000 0000 000000
2014-01-16 00:46:25,0.31,2.88,0.00,17.24,22.94,26.39,6.27,32.92,1025.39,2057.02,2526.55,2585.20,2799.17,349.42,332.69,9.69,0000 0000 0000 0000 000000
2014-01-16 00:47:25,0.29,2.88,0.00,17.24,22.94,26.39,6.24,32.83,1025.40,2057.00,2526.08,2584.78,2798.59,349.92,332.83,9.69,0000 0000 0000 0000 000000
2014-01-16 00:48:26,0.33,2.88,0.00,17.25,22.94,26.34,6.11,32.58,1025.40,2057.01,2525.45,2584.30,2798.21,349.48,332.74,9.70,0000 0000 0000 0000 000000
2014-01-16 00:49:26,0.30,2.88,0.00,17.24,22.94,26.35,6.27,32.75,1025.40,2057.00,2525.06,2584.05,2797.89,349.49,332.76,9.71,0000 0000 0000 0000 000000
2014-01-16 00:50:26,0.28,2.89,0.00,17.24,22.94,26.36,6.24,32.38,1025.40,2057.00,2524.45,2583.55,2797.36,350.72,333.76,9.71,0000 0000 0000 0000 000000
2014-01-16 00:51:26,0.32,2.89,0.00,17.26,22.94,26.38,6.17,32.58,1025.40,2057.01,2524.01,2583.18,2797.09,348.97,332.24,9.72,0000 0000 0000 0000 000000
2014-01-16 00:52:27,0.30,2.89,0.00,17.27,22.95,26.37,6.39,32.79,1025.40,2057.01,2523.41,2582.73,2796.53,350.67,333.86,9.72,0000 0000 0000 0000 000000
2014-01-16 00:53:27,0.34,2.89,0.00,17.27,22.95,26.37,6.34,32.79,1025.40,2057.05,2522.93,2582.28,2796.18,350.42,333.86,9.73,0000 0000 0000 0000 000000
2014-01-16 00:54:27,0.34,2.89,0.00,17.27,22.95,26.40,6.23,32.67,1025.40,2057.05,2522.35,2582.01,2795.67,350.35,333.65,9.73,0000 0000 0000 0000 000000
2014-01-16 00:55:28,0.32,2.90,0.00,17.27,22.96,26.42,6.34,32.92,1025.39,2057.03,2521.80,2581.45,2795.24,349.03,332.40,9.74,0000 0000 0000 0000 000000
2014-01-16 00:56:28,0.32,2.90,0.00,17.28,22.97,26.42,6.21,32.92,1025.37,2057.06,2521.30,2581.16,2794.91,349.77,332.77,9.75,0000 0000 0000 0000 000000
2014-01-16 00:57:28,0.27,2.90,0.00,17.29,22.97,26.42,6.37,32.75,1025.20,2057.03,2520.84,2580.72,2794.37,350.18,333.37,9.75,0000 0000 0000 0000 000000
2014-01-16 00:58:29,0.29,2.90,0.00,17.29,22.97,26.40,6.34,32.83,1025.11,2057.04,2520.30,2580.27,2794.01,350.66,333.76,9.76,0000 0000 0000 0000 000000
2014-01-16 00:59:29,0.33,2.90,0.00,17.29,22.97,26.45,6.23,32.67,1025.15,2057.08,2519.72,2579.94,2793.42,349.69,332.90,9.76,0000 0000 0000 0000 000000
2014-01-16 01:00:29,0.35,2.90,0.00,17.29,22.97,26.43,6.30,32.71,1025.27,2057.07,2519.23,2579.40,2793.13,349.83,332.90,9.77,0000 0000 0000 0000 000000
2014-01-16 01:01:29,0.32,2.91,0.00,17.29,22.97,26.44,6.38,32.92,1025.24,2057.03,2518.65,2579.12,2792.59,350.23,333.24,9.78,0000 0000 0000 0000 000000
2014-01-16 01:02:30,0.27,2.91,0.00,17.32,22.97,26.45,6.28,32.63,1025.14,2057.03,2518.20,2578.65,2792.21,349.84,332.92,9.78,0000 0000 0000 0000 000000
2014-01-16 01:03:30,0.30,2.91,0.00,17.33,22.97,26.46,6.25,32.58,1025.23,2057.01,2517.58,2578.24,2791.82,350.07,333.15,9.79,0000 0000 0000 0000 000000
2014-01-16 01:04:30,0.30,2.91,0.00,17.32,22.98,26.42,6.13,32.71,1025.34,2057.01,2517.15,2577.87,2791.31,349.49,332.65,9.79,0000 0000 0000 0000 000000
2014-01-16 01:05:30,0.33,2.91,0.00,17.32,22.98,26.42,6.29,32.83,1025.38,2057.02,2516.53,2577.34,2790.91,350.42,333.55,9.80,0000 0000 0000 0000 000000
2014-01-16 01:06:31,0.35,2.92,0.00,17.32,22.99,26.43,6.10,32.54,1025.32,2057.04,2516.02,2577.07,2790.36,349.52,332.67,9.81,0000 0000 0000 0000 000000
2014-01-16 01:07:31,0.33,2.92,0.00,17.34,22.99,26.44,6.07,32.46,1025.30,2057.03,2515.41,2576.54,2790.00,349.07,332.64,9.81,0000 0000 0000 0000 000000
2014-01-16 01:08:31,0.33,2.92,0.00,17.34,22.99,26.39,6.26,32.75,1025.11,2057.02,2514.87,2576.16,2789.43,350.37,333.45,9.82,0000 0000 0000 0000 000000
2014-01-16 01:09:32,0.36,2.92,0.00,17.33,22.99,26.47,6.10,32.75,1025.19,2057.04,2514.32,2575.58,2788.98,349.64,332.73,9.82,0000 0000 0000 0000 000000
2014-01-16 01:10:32,0.37,2.93,0.00,17.34,22.99,26.42,6.22,32.88,1025.37,2057.03,2513.83,2575.21,2788.39,349.64,332.78,9.83,0000 0000 0000 0000 000000
2014-01-16 01:11:32,0.30,2.93,0.00,17.34,22.99,26.41,6.36,33.04,1025.36,2057.01,2513.31,2574.85,2788.01,350.24,332.80,9.83,0000 0000 0000 0000 000000
2014-01-16 01:12:33,0.30,2.93,0.00,17.34,22.99,26.44,6.23,33.00,1025.31,2057.01,2512.82,2574.32,2787.42,350.27,333.37,9.84,0000 0000 0000 0000 000000
2014-01-16 01:13:33,0.34,2.93,0.00,17.34,23.00,26.44,6.15,33.13,1025.29,2057.00,2512.30,2574.01,2786.99,349.64,332.76,9.85,0000 0000 0000 0000 000000
2014-01-16 01:14:33,0.32,2.93,0.00,17.35,23.00,26.44,6.13,33.13,1025.23,2057.00,2511.78,2573.45,2786.41,349.52,333.09,9.85,0000 0000 0000 0000 000000
2014-01-16 01:15:33,0.34,2.93,0.00,17.36,23.01,26.41,6.28,32.67,1025.26,2057.03,2511.26,2573.14,2786.02,350.52,333.63,9.86,0000 0000 0000 0000 000000
2014-01-16 01:16:34,0.34,2.94,0.00,17.36,23.02,26.44,6.28,32.75,1025.29,2057.01,2510.67,2572.58,2785.41,350.27,333.49,9.86,0000 0000 0000 0000 000000
2014-01-16 01:17:34,0.34,2.94,0.00,17.35,23.02,26.46,6.24,32.79,1025.38,2057.00,2510.18,2572.19,2784.95,350.40,332.78,9.87,0000 0000 0000 0000 000000
2014-01-16 01:18:34,0.35,2.94,0.00,17.37,23.02,26.44,6.09,32.88,1025.39,2057.00,2509.51,2571.71,2784.37,350.23,333.65,9.88,0000 0000 0000 0000 000000
2014-01-16 01:19:35,0.35,2.94,0.00,17.37,23.02,26.44,6.27,32.92,1025.39,2057.00,2509.10,2571.24,2784.00,350.50,333.57,9.88,0000 0000 0000 0000 000000
2014-01-16 01:20:35,0.31,2.94,0.00,17.36,23.02,26.45,6.27,32.75,1025.40,2057.00,2508.51,2570.95,2783.41,349.77,332.89,9.89,0000 0000 0000 0000 000000
2014-01-16 01:21:35,0.32,2.95,0.00,17.37,23.02,26.44,6.33,32.79,1025.40,2057.00,2508.01,2570.38,2782.98,349.77,332.88,9.89,0000 0000 0000 0000 000000
2014-01-16 01:22:35,0.35,2.95,0.00,17.37,23.02,26.44,6.22,33.00,1025.40,2057.00,2507.41,2570.07,2782.39,349.12,332.26,9.90,0000 0000 0000 0000 000000
2014-01-16 01:23:36,0.31,2.95,0.00,17.37,23.03,26.42,6.18,32.88,1025.40,2057.00,2506.95,2569.50,2782.06,349.93,333.04,9.90,0000 0000 0000 0000 000000
2014-01-16 01:24:36,0.34,2.95,0.00,17.37,23.03,26.43,6.17,32.79,1025.39,2057.00,2506.37,2569.17,2781.49,349.83,332.94,9.91,0000 0000 0000 0000 000000
2014-01-16 01:25:36,0.30,2.95,0.00,17.37,23.04,26.44,6.32,32.79,1025.38,2057.00,2505.73,2568.68,2781.08,350.08,333.21,9.92,0000 0000 0000 0000 000000
2014-01-16 01:26:36,0.38,2.96,0.00,17.37,23.04,26.44,6.24,32.92,1025.40,2057.00,2505.25,2568.24,2780.48,349.27,332.28,9.92,0000 0000 0000 0000 000000
2014-01-16 01:27:37,0.31,2.96,0.00,17.38,23.04,26.48,6.27,32.96,1025.40,2057.00,2504.67,2567.93,2780.13,349.78,333.12,9.93,0000 0000 0000 0000 000000
2014-01-16 01:28:37,0.33,2.96,0.00,17.38,23.04,26.48,6.27,32.71,1025.40,2057.00,2504.21,2567.37,2779.55,350.47,333.66,9.93,0000 0000 0000 0000 000000
2014-01-16 01:29:37,0.33,2.96,0.00,17.39,23.04,26.48,6.23,32.63,1025.40,2057.00,2503.59,2567.09,2779.19,350.47,333.32,9.94,0000 0000 0000 0000 000000
2014-01-16 01:30:38,0.29,2.96,0.00,17.38,23.04,26.48,6.13,32.79,1025.40,2057.00,2503.14,2566.55,2778.66,349.88,333.11,9.95,0000 0000 0000 0000 000000
2014-01-16 01:31:38,0.36,2.97,0.00,17.39,23.05,26.48,6.21,32.75,1025.40,2057.00,2502.51,2566.20,2778.22,349.59,332.48,9.95,0000 0000 0000 0000 000000
2014-01-16 01:32:38,0.29,2.97,0.00,17.38,23.05,26.48,6.24,32.92,1025.40,2057.00,2502.11,2565.77,2777.72,350.81,333.68,9.96,0000 0000 0000 0000 000000
2014-01-16 01:33:39,0.36,2.97,0.00,17.37,23.06,26.49,6.28,32.71,1025.40,2057.00,2501.49,2565.28,2777.27,349.75,332.47,9.96,0000 0000 0000 0000 000000
2014-01-16 01:34:39,0.31,2.97,0.00,17.39,23.07,26.48,6.30,32.71,1025.39,2057.00,2501.03,2565.00,2776.93,350.65,333.27,9.97,0000 0000 0000 0000 000000
2014-01-16 01:35:39,0.33,2.97,0.00,17.39,23.07,26.49,6.13,32.79,1025.40,2057.00,2500.42,2564.43,2776.36,348.76,331.98,9.98,0000 0000 0000 0000 000000
2014-01-16 01:36:40,0.33,2.98,0.00,17.40,23.07,26.45,6.14,32.63,1025.38,2057.00,2500.00,2564.15,2776.03,348.94,332.05,9.98,0000 0000 0000 0000 000000
2014-01-16 01:37:40,0.27,2.98,0.00,17.42,23.07,26.45,6.33,32.75,1025.37,2056.98,2499.41,2563.66,2775.46,350.14,333.17,9.99,0000 0000 0000 0000 000000
2014-01-16 01:38:40,0.33,2.98,0.00,17.42,23.07,26.47,6.22,32.83,1025.30,2056.99,2499.03,2563.24,2775.13,350.00,333.01,9.99,0000 0000 0000 0000 000000
2014-01-16 01:39:40,0.30,2.98,0.00,17.43,23.07,26.48,6.18,32.75,1025.11,2056.98,2498.43,2562.98,2774.55,350.07,333.01,10.00,0000 0000 0000 0000 000000
2014-01-16 01:40:40,0.31,2.98,0.00,17.44,23.08,26.47,6.20,32.58,1024.96,2056.99,2498.01,2562.43,2774.19,350.11,332.99,10.00,0000 0000 0000 0000 000000
2014-01-16 01:41:41,0.32,2.98,0.00,17.42,23.08,26.48,6.19,32.54,1024.92,2056.98,2497.41,2562.13,2773.67,349.37,332.28,10.01,0000 0000 0000 0000 000000
2014-01-16 01:42:41,0.31,2.99,0.00,17.42,23.09,26.54,6.19,32.67,1024.95,2056.99,2496.99,2561.67,2773.24,351.14,333.98,10.02,0000 0000 0000 0000 000000
2014-01-16 01:43:42,0.32,2.99,0.00,17.42,23.09,26.52,6.22,32.54,1025.00,2056.99,2496.42,2561.26,2772.93,350.70,333.43,10.02,0000 0000 0000 0000 000000
2014-01-16 01:44:42,0.29,2.99,0.00,17.44,23.09,26.50,6.15,32.75,1025.13,2056.99,2496.09,2561.03,2772.38,349.45,332.63,10.03,0000 0000 0000 0000 000000
2014-01-16 01:45:42,0.27,2.99,0.00,17.43,23.09,26.53,6.23,32.75,1025.30,2056.99,2495.48,2560.48,2772.05,350.62,333.57,10.03,0000 0000 0000 0000 000000
2014-01-16 01:46:42,0.32,2.99,0.00,17.44,23.09,26.55,6.26,32.54,1025.36,2056.99,2495.10,2560.15,2771.46,349.74,333.03,10.04,0000 0000 0000 0000 000000
2014-01-16 01:47:43,0.30,3.00,0.00,17.44,23.10,26.54,6.11,32.58,1025.24,2056.99,2494.51,2559.65,2771.14,349.46,332.45,10.05,0000 0000 0000 0000 000000
2014-01-16 01:48:43,0.34,3.00,0.00,17.45,23.10,26.57,6.36,33.00,1025.04,2056.97,2494.06,2559.23,2770.59,350.38,332.49,10.05,0000 0000 0000 0000 000000
2014-01-16 01:49:43,0.32,3.00,0.00,17.47,23.11,26.54,6.08,32.21,1025.03,2056.98,2493.45,2559.08,2770.21,349.44,332.33,10.06,0000 0000 0000 0000 000000
2014-01-16 01:50:44,0.23,3.00,0.00,17.47,23.12,26.51,6.36,32.63,1025.11,2056.99,2493.09,2558.66,2769.70,350.17,332.73,10.06,0000 0000 0000 0000 000000
2014-01-16 01:51:44,0.34,3.00,0.00,17.48,23.12,26.54,6.28,32.67,1025.17,2056.97,2492.50,2558.24,2769.25,350.00,333.23,10.07,0000 0000 0000 0000 000000
2014-01-16 01:52:44,0.30,3.00,0.00,17.49,23.12,26.56,6.25,32.58,1025.15,2056.98,2492.13,2558.04,2768.96,349.29,332.20,10.08,0000 0000 0000 0000 000000
2014-01-16 01:53:45,0.23,3.01,0.00,17.50,23.12,26.55,6.27,32.71,1025.31,2056.98,2491.56,2557.51,2768.41,350.42,333.49,10.08,0000 0000 0000 0000 000000
2014-01-16 01:54:45,0.34,3.01,0.00,17.49,23.12,26.57,6.20,32.63,1025.21,2056.99,2491.17,2557.18,2768.12,350.43,333.31,10.09,0000 0000 0000 0000 000000
2014-01-16 01:55:45,0.26,3.01,0.00,17.50,23.12,26.54,6.31,32.71,1025.17,2056.98,2490.59,2556.79,2767.59,349.92,332.79,10.09,0000 0000 0000 0000 000000
2014-01-16 01:56:45,0.39,3.01,0.00,17.52,23.13,26.54,6.18,32.54,1025.13,2056.99,2490.16,2556.30,2767.19,350.46,333.28,10.10,0000 0000 0000 0000 000000
2014-01-16 01:57:46,0.28,3.01,0.00,17.52,23.14,26.54,6.24,32.79,1025.06,2056.97,2489.58,2556.04,2766.66,349.85,332.68,10.10,0000 0000 0000 0000 000000
2014-01-16 01:58:46,0.32,3.02,0.00,17.52,23.14,26.53,6.28,32.50,1025.15,2056.96,2489.11,2555.49,2766.25,350.13,332.98,10.11,0000 0000 0000 0000 000000
2014-01-16 01:59:46,0.33,3.02,0.00,17.52,23.14,26.56,6.31,32.75,1025.13,2056.95,2488.50,2555.17,2765.79,350.73,333.35,10.12,0000 0000 0000 0000 000000
2014-01-16 02:00:46,0.30,3.02,0.00,17.52,23.14,26.55,6.24,32.50,1025.32,2056.95,2487.95,2554.69,2765.28,349.48,332.72,10.12,0000 0000 0000 0000 000000
2014-01-16 02:01:46,0.39,3.02,0.00,17.52,23.15,26.57,6.29,33.00,1025.40,2056.96,2487.37,2554.25,2764.88,349.94,333.31,10.13,0000 0000 0000 0000 000000
2014-01-16 02:02:47,0.31,3.02,0.00,17.52,23.14,26.55,6.25,32.42,1025.39,2056.94,2486.97,2553.86,2764.33,350.25,332.91,10.13,0000 0000 0000 0000 000000
2014-01-16 02:03:47,0.32,3.02,0.00,17.53,23.15,26.59,6.23,32.54,1025.40,2056.93,2486.38,2553.33,2763.83,349.25,332.22,10.14,0000 0000 0000 0000 000000
2014-01-16 02:04:47,0.35,3.03,0.00,17.53,23.15,26.62,6.21,32.50,1025.39,2056.91,2485.97,2553.04,2763.31,349.03,332.17,10.15,0000 0000 0000 0000 000000
2014-01-16 02:05:47,0.27,3.03,0.00,17.52,23.17,26.61,6.24,32.58,1025.30,2056.89,2485.38,2552.50,2762.98,350.05,332.67,10.15,0000 0000 0000 0000 000000
2014-01-16 02:06:48,0.31,3.03,0.00,17.52,23.17,26.63,6.17,32.88,1025.24,2056.82,2484.89,2552.17,2762.43,349.78,332.71,10.16,0000 0000 0000 0000 000000
2014-01-16 02:07:48,0.22,3.03,0.00,17.53,23.17,26.64,6.19,32.71,1025.36,2056.58,2484.33,2551.73,2761.95,350.74,333.61,10.16,0000 0000 0000 0000 000000
2014-01-16 02:08:48,0.13,3.03,0.00,17.53,23.17,26.63,6.26,32.42,1025.36,2056.34,2483.82,2551.27,2761.37,349.20,332.11,10.17,0000 0000 0000 0000 000000
2014-01-16 02:09:48,0.18,3.03,0.00,17.54,23.17,26.61,6.05,32.42,1025.22,2056.20,2483.30,2550.94,2760.98,349.03,331.92,10.17,0000 0000 0000 0000 000000
2014-01-16 02:10:48,0.17,3.03,0.00,17.54,23.17,26.60,6.29,32.63,1025.11,2056.13,2482.72,2550.38,2760.41,350.02,332.82,10.18,0000 0000 0000 0000 000000
2014-01-16 02:11:49,0.32,3.04,0.00,17.55,23.18,26.59,6.24,32.38,1025.12,2056.10,2482.25,2550.08,2760.11,349.72,332.71,10.19,0000 0000 0000 0000 000000
2014-01-16 02:12:49,0.22,3.04,0.00,17.56,23.19,26.61,6.22,32.46,1025.28,2056.08,2481.73,2549.56,2759.58,350.36,333.52,10.19,0000 0000 0000 0000 000000
2014-01-16 02:13:49,0.36,3.04,0.00,17.57,23.19,26.60,6.20,32.83,1025.34,2056.06,2481.25,2549.20,2759.17,351.14,333.94,10.20,0000 0000 0000 0000 000000
2014-01-16 02:14:50,0.23,3.04,0.00,17.57,23.19,26.62,6.25,32.63,1025.08,2056.04,2480.72,2548.81,2758.59,350.85,333.57,10.20,0000 0000 0000 0000 000000
2014-01-16 02:15:50,0.37,3.04,0.00,17.57,23.19,26.64,6.31,32.71,1024.97,2056.04,2480.26,2548.31,2758.21,350.80,333.49,10.21,0000 0000 0000 0000 000000
2014-01-16 02:16:50,0.29,3.05,0.00,17.57,23.19,26.66,6.21,32.54,1024.95,2056.03,2479.70,2548.03,2757.75,349.68,332.42,10.22,0000 0000 0000 0000 000000
2014-01-16 02:17:50,0.31,3.05,0.00,17.57,23.20,26.63,6.10,32.46,1024.97,2056.02,2479.19,2547.48,2757.27,348.90,331.61,10.22,0000 0000 0000 0000 000000
2014-01-16 02:18:50,0.34,3.05,0.00,17.57,23.20,26.65,6.25,32.79,1024.98,2056.02,2478.56,2547.17,2756.84,349.60,332.35,10.23,0000 0000 0000 0000 000000
2014-01-16 02:19:51,0.32,3.05,0.00,17.59,23.21,26.64,6.33,32.71,1024.96,2056.01,2478.14,2546.80,2756.32,350.41,333.09,10.23,0000 0000 0000 0000 000000
2014-01-16 02:20:51,0.32,3.05,0.00,17.59,23.22,26.64,6.27,32.75,1024.95,2056.02,2477.52,2546.31,2755.95,350.30,332.98,10.24,0000 0000 0000 0000 000000
2014-01-16 02:21:51,0.35,3.05,0.00,17.59,23.22,26.64,6.23,32.58,1025.00,2056.01,2477.15,2546.01,2755.40,349.14,332.07,10.24,0000 0000 0000 0000 000000
2014-01-16 02:22:51,0.27,3.06,0.00,17.59,23.22,26.64,6.21,32.75,1025.15,2056.01,2476.55,2545.47,2755.11,349.90,332.67,10.25,0000 0000 0000 0000 000000
2014-01-16 02:23:51,0.35,3.06,0.00,17.59,23.22,26.66,6.40,32.75,1025.25,2056.03,2476.17,2545.16,2754.57,350.17,332.56,10.26,0000 0000 0000 0000 000000
2014-01-16 02:24:52,0.28,3.06,0.00,17.61,23.22,26.65,6.28,32.63,1025.34,2056.03,2475.59,2544.73,2754.19,350.80,333.57,10.26,0000 0000 0000 0000 000000
2014-01-16 02:25:52,0.38,3.06,0.00,17.61,23.22,26.65,6.15,32.88,1025.40,2056.03,2475.17,2544.26,2753.73,350.05,333.09,10.27,0000 0000 0000 0000 000000
2014-01-16 02:26:52,0.29,3.06,0.00,17.62,23.22,26.64,6.35,32.71,1025.40,2056.01,2474.59,2544.04,2753.28,349.98,332.58,10.27,0000 0000 0000 0000 000000
2014-01-16 02:27:52,0.26,3.07,0.00,17.62,23.23,26.65,6.32,32.83,1025.40,2056.01,2474.13,2543.47,2752.84,350.21,333.17,10.28,0000 0000 0000 0000 000000
2014-01-16 02:28:53,0.36,3.07,0.00,17.62,23.24,26.65,6.27,32.79,1025.40,2056.00,2473.50,2543.17,2752.34,349.13,331.99,10.29,0000 0000 0000 0000 000000
2014-01-16 02:29:53,0.30,3.07,0.00,17.62,23.24,26.66,6.16,32.67,1025.40,2056.00,2473.17,2542.84,2752.09,349.71,332.55,10.29,0000 0000 0000 0000 000000
2014-01-16 02:30:53,0.24,3.07,0.00,17.62,23.24,26.69,6.24,32.42,1025.40,2056.00,2472.62,2542.33,2751.54,351.23,334.10,10.30,0000 0000 0000 0000 000000
2014-01-16 02:31:53,0.37,3.07,0.00,17.64,23.24,26.67,6.24,32.83,1025.40,2056.00,2472.19,2542.04,2751.19,350.26,333.54,10.30,0000 0000 0000 0000 000000
2014-01-16 02:32:54,0.23,3.07,0.00,17.64,23.25,26.67,6.20,32.63,1025.39,2056.00,2471.59,2541.52,2750.93,350.16,333.24,10.31,0000 0000 0000 0000 000000
2014-01-16 02:33:54,0.37,3.08,0.00,17.64,23.25,26.69,6.28,32.54,1025.39,2056.00,2471.20,2541.19,2750.39,349.50,332.38,10.32,0000 0000 0000 0000 000000
2014-01-16 02:34:54,0.27,3.08,0.00,17.64,23.25,26.72,6.30,32.63,1025.37,2056.00,2470.63,2540.81,2750.07,350.98,333.88,10.32,0000 0000 0000 0000 000000
2014-01-16 02:35:54,0.33,3.08,0.00,17.64,23.26,26.71,6.31,32.54,1025.35,2056.00,2470.21,2540.31,2749.54,350.15,333.16,10.33,0000 0000 0000 0000 000000
2014-01-16 02:36:54,0.32,3.08,0.00,17.64,23.27,26.73,6.26,32.75,1025.40,2056.00,2469.65,2540.07,2749.16,349.12,331.96,10.33,0000 0000 0000 0000 000000